[[{"header":{"parameterUnit":"m.s-1","parameterCategory":2,"la1":30.2991,"la2":30.254,"lo1":-89.0895,"lo2":-89.0444,"dy":0.0017,"dx":0.0017,"nx":28,"ny":28,"refTime":"2025-03-20T09:00:00:Z","depth":"0","parameterNumber":2,"parameterNumberName":"U-component_of_CURRENTS"},"data":[0,0,0,0,0,0,0,0,0,0,0,0,0,0,0,0,0,0,0,0,0,0,0,0,0,0,0,0,0,0,0,0,0,0,0,0,0,0,0,0,0,0,0,0,0,0,0,0,0,0,0,0,0,0,0,0,0,0,0.2739,0.274,0,0.2784,0.2785,0.2785,0.2718,0.2716,0.2715,0.2713,0.2734,0.2736,0.2738,0,0,0,0,0,0,0,0,0,0,0,0,0,0.266,0.2661,0.2739,0.274,0.2741,0.2784,0.2785,0.2785,0.2718,0.2716,0.2714,0.2712,0.2733,0.2736,0.2738,0,0,0,0,0,0,0,0,0,0,0,0,0,0.2693,0.2661,0.2739,0.2718,0.2717,0.2784,0.2785,0.2785,0.2719,0.2716,0.2714,0.2711,0.2732,0.2735,0.2739,0.2813,0,0,0.2749,0.275,0,0,0,0,0,0,0,0,0.2691,0.2695,0.272,0.2719,0.2719,0.2748,0.2765,0.2795,0.272,0.2712,0.2713,0.271,0.2742,0.2745,0.2751,0.2814,0.2814,0.2749,0.2751,0.2752,0.2753,0,0,0,0,0,0,0,0.2689,0.2693,0.2751,0.2721,0.2721,0.2729,0.2729,0.277,0.2736,0.2712,0.2709,0.2725,0.274,0.2748,0.2751,0.2815,0.2749,0.2752,0.2754,0.2755,0.2948,0.2951,0,0,0,0,0,0,0.2695,0.2691,0.2749,0.2753,0.2705,0.2733,0.2733,0.2736,0.2736,0.2736,0.2727,0.2722,0.2743,0.2747,0.2751,0.2861,0.2752,0.2756,0.2757,0.2945,0.2948,0.2952,0,0,0,0,0,0,0.2693,0.2699,0.2748,0.2728,0.2735,0.2737,0.2742,0.2739,0.2753,0.2749,0.2746,0.2745,0.2741,0.2747,0.2812,0.286,0.2757,0.276,0.2941,0.2946,0.295,0.3067,0,0,0,0,0,0,0.269,0.2698,0.2713,0.2728,0.2737,0.2813,0.2745,0.2742,0.2769,0.2763,0.2764,0.2762,0.274,0.2807,0.2815,0.2863,0.2763,0.2937,0.2943,0.2949,0.306,0.3076,0.3089,0,0,0,0,0,0.2687,0.2723,0.2713,0.2721,0.2753,0.2817,0.2823,0.281,0.2773,0.2806,0.2804,0.2762,0.2848,0.2814,0.2822,0.2872,0.2934,0.2941,0.2948,0.3053,0.3072,0.3089,0,0,0,0,0,0,0.2699,0.2721,0.271,0.275,0.2792,0.2808,0.2839,0.2831,0.2855,0.2839,0.2817,0.2819,0.2894,0.2878,0.2839,0.2945,0.288,0.2889,0.2957,0.2975,0.299,0.3,0.2765,0,0,0,0,0,0.2712,0.2742,0.2769,0.2808,0.2825,0.2836,0.286,0.2855,0.2876,0.2881,0.2884,0.2892,0.2933,0.2947,0.2977,0.3047,0.3073,0.308,0.3095,0.3108,0.3123,0.3243,0.327,0.2975,0.2975,0.2975,0,0,0.2725,0.2748,0.2761,0.2814,0.2832,0.2889,0.2842,0.289,0.2935,0.2886,0.2945,0.2956,0.2967,0.3038,0.3068,0.3027,0.3205,0.3117,0.3127,0.3136,0.3253,0.3282,0.3308,0.298,0.2979,0.2978,0,0,0.2786,0.2789,0.2836,0.2879,0.2929,0.2941,0.2963,0.2992,0.2999,0.3069,0.3045,0.3091,0.3138,0.3159,0.3175,0.3297,0.3289,0.3299,0.3375,0.3492,0.3517,0.354,0.3605,0.3633,0.3296,0.3296,0.3296,0,0.2801,0.287,0.2867,0.2934,0.2989,0.2971,0.3051,0.3064,0.3112,0.3138,0.3099,0.3204,0.3198,0.3307,0.333,0.3331,0.3384,0.3303,0.3513,0.3536,0.3557,0.3618,0.3647,0.3302,0.3302,0.3301,0.33,0,0.2896,0.2963,0.3002,0.3072,0.3127,0.32,0.3222,0.3251,0.3249,0.3265,0.3363,0.3376,0.3434,0.344,0.3415,0.3565,0.3549,0.3527,0.3466,0.3594,0.365,0.3678,0.3312,0.3309,0.3307,0.3306,0,0,0.2899,0.3043,0.3056,0.3127,0.3214,0.3265,0.3335,0.341,0.3452,0.3482,0.3579,0.3626,0.3619,0.3639,0.3633,0.371,0.3882,0.3681,0.3684,0.3744,0.413,0.395,0.3963,0.3913,0.3919,0.3923,0.4106,0,0.2983,0.3149,0.3194,0.3343,0.3435,0.3451,0.352,0.3568,0.3598,0.3672,0.3691,0.3775,0.3702,0.3744,0.3818,0.3879,0.3964,0.3833,0.3999,0.4003,0.3828,0.3992,0.3739,0.3866,0.4133,0.4137,0.4141,0,0.306,0.3173,0.335,0.3499,0.3532,0.3597,0.3703,0.3766,0.3836,0.3864,0.394,0.3951,0.4067,0.3987,0.4166,0.4095,0.4127,0.4154,0.4162,0.3974,0.3876,0.3784,0.3907,0.3844,0.4183,0.418,0.4177,0,0.3095,0.3273,0.3428,0.3486,0.3637,0.369,0.3746,0.3819,0.3888,0.3999,0.4061,0.418,0.4252,0.4344,0.4347,0.43,0.4533,0.4474,0.4346,0.4332,0.4134,0.4091,0.4208,0.4628,0.4627,0.4627,0.4626,0,0.3191,0.3308,0.3446,0.3536,0.367,0.3741,0.3862,0.3917,0.4029,0.4125,0.4166,0.4263,0.4352,0.4451,0.4459,0.4482,0.4632,0.4399,0.4391,0.4162,0.4122,0.4065,0.4039,0.4633,0.4632,0.4631,0.463,0,0.3245,0.3342,0.3512,0.3667,0.3705,0.3794,0.3926,0.3999,0.4094,0.4233,0.4282,0.4393,0.4494,0.4543,0.4686,0.4602,0.4523,0.4619,0.4305,0.4254,0.4003,0.399,0.3944,0.3852,0.4523,0.452,0.4518,0,0.3316,0.3414,0.3586,0.3658,0.3735,0.3854,0.3922,0.4029,0.4117,0.4287,0.4364,0.4485,0.4493,0.4601,0.4516,0.4511,0.4447,0.428,0.412,0.399,0.3976,0.3846,0.3765,0.3919,0.3911,0.3906,0.3901,0,0.3459,0.3498,0.3626,0.3738,0.3825,0.3908,0.4016,0.4078,0.4195,0.4267,0.4346,0.4355,0.4396,0.4232,0.4201,0.4166,0.4056,0.4151,0.4143,0.3619,0.3369,0.3272,0.3779,0.3848,0.3853,0.3857,0.386,0.3862,0.3555,0.363,0.374,0.3817,0.3888,0.3896,0.3871,0.3962,0.4003,0.399,0.4174,0.404,0.4008,0.3869,0.3828,0.3607,0.3665,0.3475,0.3509,0.3419,0.3205,0.3554,0.352,0.3523,0.3526,0.3528,0.3531,0,0.3671,0.3712,0.3801,0.3833,0.3796,0.3841,0.3871,0.3764,0.3674,0.3716,0.3676,0.3527,0.3355,0.3327,0.3145,0.2998,0.2879,0.2961,0.2775,0.2759,0.3191,0.3035,0.274,0.274,0.274,0.274,0.2741,0.2741,0.3754,0.3814,0.3791,0.3697,0.3665,0.3503,0.3433,0.3309,0.3258,0.3025,0.2871,0.2871,0.2977,0.2924,0.2734,0.2656,0.2551,0.2362,0.2499,0.2847,0.2899,0.2948,0.2799,0.246,0.246,0.1893,0.1889,0.1886]},{"header":{"parameterUnit":"m.s-1","parameterCategory":2,"la1":30.2991,"la2":30.254,"lo1":-89.0895,"lo2":-89.0444,"dy":0.0017,"dx":0.0017,"nx":28,"ny":28,"refTime":"2025-03-20T09:00:00:Z","depth":"0","parameterNumber":3,"parameterNumberName":"V-component_of_CURRENTS"},"data":[0,0,0,0,0,0,0,0,0,0,0,0,0,0,0,0,0,0,0,0,0,0,0,0,0,0,0,0,0,0,0,0,0,0,0,0,0,0,0,0,0,0,0,0,0,0,0,0,0,0,0,0,0,0,0,0,0,0,0.0092,0.0092,0,0.0097,0.0097,0.0097,0.0093,0.0093,0.0092,0.0092,0.0108,0.0109,0.011,0,0,0,0,0,0,0,0,0,0,0,0,0,0.0055,0.0055,0.0092,0.0092,0.0092,0.0097,0.0097,0.0097,0.0093,0.0093,0.0092,0.0092,0.0108,0.0109,0.011,0,0,0,0,0,0,0,0,0,0,0,0,0,0.0067,0.0056,0.0092,0.009,0.009,0.0097,0.0097,0.0097,0.0093,0.0093,0.0092,0.0092,0.0108,0.0109,0.011,0.0123,0,0,0.0113,0.0113,0,0,0,0,0,0,0,0,0.0066,0.0068,0.009,0.009,0.009,0.0093,0.009,0.0106,0.0093,0.0092,0.0092,0.0092,0.0104,0.0106,0.0108,0.0124,0.0124,0.0113,0.0113,0.0114,0.0114,0,0,0,0,0,0,0,0.0065,0.0068,0.0095,0.009,0.009,0.008,0.0082,0.0093,0.0101,0.0092,0.0092,0.0092,0.0104,0.0107,0.0108,0.0124,0.0113,0.0114,0.0114,0.0115,0.0177,0.0178,0,0,0,0,0,0,0.0066,0.0068,0.0094,0.0095,0.0076,0.0081,0.0083,0.0093,0.0101,0.0101,0.0092,0.0091,0.0105,0.0107,0.0109,0.0166,0.0114,0.0115,0.0115,0.0176,0.0177,0.0178,0,0,0,0,0,0,0.0065,0.0068,0.0094,0.008,0.0082,0.0083,0.0094,0.0093,0.0096,0.01,0.0101,0.0095,0.0105,0.0107,0.0125,0.0165,0.0115,0.0116,0.0175,0.0176,0.0178,0.0254,0,0,0,0,0,0,0.0064,0.0068,0.0074,0.008,0.0083,0.011,0.0094,0.0094,0.0096,0.0096,0.0103,0.0104,0.0105,0.0124,0.0126,0.0165,0.0117,0.0173,0.0175,0.0177,0.025,0.0258,0.0264,0,0,0,0,0,0.0063,0.0082,0.0075,0.0077,0.0092,0.0111,0.0113,0.0111,0.0097,0.0109,0.0109,0.0103,0.0139,0.0126,0.0128,0.0168,0.0172,0.0175,0.0177,0.0246,0.0256,0.0264,0,0,0,0,0,0,0.0068,0.0083,0.0075,0.0097,0.0105,0.0111,0.012,0.0112,0.0121,0.0117,0.0115,0.0117,0.0149,0.0142,0.0128,0.019,0.0156,0.0159,0.0208,0.0217,0.0224,0.0256,0.0118,0,0,0,0,0,0.007,0.0089,0.0096,0.0112,0.0117,0.0115,0.012,0.0119,0.0126,0.0128,0.0132,0.014,0.0161,0.0174,0.0184,0.0218,0.0214,0.0244,0.0251,0.0258,0.0285,0.0321,0.0335,0.0186,0.0186,0.0186,0,0,0.0075,0.0085,0.0095,0.0114,0.0118,0.014,0.0118,0.0132,0.0155,0.013,0.0161,0.0162,0.0172,0.0213,0.0227,0.0214,0.0289,0.0261,0.0267,0.029,0.0325,0.034,0.0353,0.0188,0.0188,0.0187,0,0,0.0104,0.0105,0.0133,0.0143,0.0153,0.0156,0.0161,0.0169,0.0179,0.0202,0.0198,0.0227,0.0241,0.0274,0.0289,0.0342,0.0323,0.0336,0.0409,0.0444,0.0457,0.0468,0.0447,0.0457,0.0346,0.0346,0.0346,0,0.0106,0.0137,0.0143,0.017,0.0176,0.0166,0.019,0.0209,0.0223,0.0253,0.0221,0.0287,0.028,0.0367,0.038,0.0364,0.0357,0.0376,0.0456,0.0467,0.0478,0.0454,0.0463,0.035,0.0349,0.0349,0.0349,0,0.016,0.0174,0.0191,0.0222,0.0237,0.0251,0.0272,0.0297,0.0295,0.0322,0.0391,0.0393,0.0444,0.044,0.0424,0.051,0.0469,0.0456,0.0437,0.0498,0.0467,0.0475,0.0355,0.0354,0.0353,0.0352,0,0,0.018,0.0218,0.0223,0.0238,0.0256,0.0279,0.0326,0.038,0.0452,0.0457,0.055,0.0571,0.0586,0.0604,0.0599,0.0623,0.0664,0.0574,0.0574,0.056,0.0704,0.0615,0.0614,0.0667,0.0669,0.0672,0.0639,0,0.0209,0.0257,0.0275,0.0318,0.0334,0.0351,0.0412,0.0466,0.0518,0.0611,0.0635,0.0715,0.0648,0.0688,0.0704,0.0692,0.0695,0.0672,0.0642,0.0641,0.0562,0.0626,0.0609,0.0575,0.0647,0.0648,0.0649,0,0.0249,0.0271,0.0309,0.0366,0.0382,0.0419,0.0521,0.058,0.071,0.0759,0.0843,0.0874,0.0934,0.0859,0.0866,0.0853,0.0786,0.075,0.0748,0.0655,0.057,0.0533,0.0587,0.0496,0.0661,0.066,0.066,0,0.0244,0.0298,0.0322,0.0334,0.0404,0.0446,0.05,0.0626,0.0741,0.0871,0.0973,0.1029,0.1082,0.1033,0.0944,0.0918,0.0926,0.088,0.0729,0.0719,0.0696,0.068,0.0674,0.0877,0.0877,0.0877,0.0877,0,0.0252,0.0275,0.0326,0.0338,0.0441,0.0464,0.0619,0.0698,0.0862,0.1041,0.1057,0.1194,0.1132,0.1131,0.1012,0.0898,0.0975,0.0762,0.0727,0.0714,0.0701,0.0611,0.0541,0.0876,0.0876,0.0876,0.0877,0,0.0247,0.0257,0.0319,0.0395,0.0439,0.0519,0.0717,0.0864,0.0963,0.1196,0.1247,0.1344,0.1322,0.1219,0.1139,0.0992,0.0806,0.081,0.0766,0.0726,0.0481,0.0414,0.0336,0.0286,0.0652,0.065,0.0648,0,0.0245,0.0266,0.0386,0.0483,0.0527,0.0659,0.0799,0.092,0.1092,0.13,0.143,0.1462,0.1522,0.1332,0.1085,0.0856,0.0748,0.0667,0.0616,0.0487,0.0388,0.0334,0.0296,0.0598,0.0596,0.0594,0.0593,0,0.0288,0.0333,0.0417,0.06,0.0741,0.091,0.109,0.1224,0.1389,0.1551,0.173,0.177,0.1575,0.1357,0.1007,0.0833,0.0583,0.0622,0.0541,0.0393,0.029,0.0219,0.0556,0.0578,0.058,0.0581,0.0582,0.0582,0.0373,0.0459,0.0595,0.077,0.0941,0.1133,0.1267,0.1459,0.1676,0.1892,0.1915,0.1964,0.1631,0.1155,0.0904,0.0445,0.045,0.0317,0.0257,0.0223,0.0156,0.0422,0.037,0.0371,0.0371,0.0371,0.0371,0,0.0502,0.0606,0.0776,0.0976,0.1158,0.1215,0.1466,0.1596,0.1814,0.1989,0.2103,0.1952,0.1521,0.1087,0.0464,0.0164,0.0071,0.0014,-0.0023,-0.0036,0.026,0.0239,0.0097,0.0097,0.0097,0.0097,0.0097,0.0097,0.0595,0.0765,0.0828,0.1116,0.1255,0.146,0.1578,0.1773,0.1923,0.2092,0.2115,0.2121,0.1818,0.0735,0.0067,-0.0084,-0.0239,-0.033,-0.0386,-0.0152,-0.0126,-0.0101,-0.0132,-0.0351,-0.0351,-0.0632,-0.0635,-0.0637]}],[{"header":{"parameterUnit":"m.s-1","parameterCategory":2,"la1":30.2991,"la2":30.254,"lo1":-89.0895,"lo2":-89.0444,"dy":0.0017,"dx":0.0017,"nx":28,"ny":28,"refTime":"2025-03-20T09:00:00:Z","depth":"2","parameterNumber":2,"parameterNumberName":"U-component_of_CURRENTS"},"data":[0,0,0,0,0,0,0,0,0,0,0,0,0,0,0,0,0,0,0,0,0,0,0,0,0,0,0,0,0,0,0,0,0,0,0,0,0,0,0,0,0,0,0,0,0,0,0,0,0,0,0,0,0,0,0,0,0,0,0.2269,0.2269,0,0.226,0.2259,0.2259,0.2224,0.2224,0.2224,0.2224,0.2267,0.2269,0.227,0,0,0,0,0,0,0,0,0,0,0,0,0,0.2231,0.2231,0.2269,0.2269,0.227,0.226,0.2259,0.2259,0.2224,0.2224,0.2224,0.2224,0.2267,0.2268,0.227,0,0,0,0,0,0,0,0,0,0,0,0,0,0.223,0.2231,0.2269,0.2257,0.2257,0.226,0.2259,0.2258,0.2224,0.2224,0.2224,0.2224,0.2266,0.2268,0.227,0.2285,0,0,0.2276,0.2277,0,0,0,0,0,0,0,0,0.223,0.2231,0.2258,0.2258,0.2258,0.225,0.2262,0.2272,0.2224,0.2228,0.2224,0.2224,0.2271,0.2273,0.226,0.2287,0.2289,0.2276,0.2277,0.2278,0.2278,0,0,0,0,0,0,0,0.223,0.2231,0.2258,0.2259,0.2259,0.2245,0.2244,0.2263,0.2246,0.2228,0.2227,0.2239,0.227,0.2258,0.2261,0.2289,0.2276,0.2278,0.2279,0.228,0.244,0.2443,0,0,0,0,0,0,0.2248,0.2231,0.2258,0.2258,0.2252,0.2246,0.2245,0.2246,0.2245,0.2246,0.2239,0.2237,0.2255,0.2259,0.2263,0.2368,0.2278,0.228,0.2281,0.2437,0.2441,0.2444,0,0,0,0,0,0,0.2247,0.225,0.2259,0.2251,0.2252,0.2248,0.2249,0.2246,0.2239,0.2254,0.2254,0.2236,0.2255,0.226,0.2322,0.2366,0.2281,0.2282,0.2433,0.2438,0.2443,0.2523,0,0,0,0,0,0,0.2246,0.225,0.2267,0.2252,0.2253,0.2284,0.225,0.2246,0.2249,0.2247,0.2252,0.2255,0.2255,0.2319,0.2323,0.2367,0.2284,0.2429,0.2436,0.2441,0.2517,0.253,0.2542,0,0,0,0,0,0.2244,0.2273,0.2267,0.2271,0.2273,0.2286,0.2285,0.2276,0.225,0.2263,0.2282,0.2255,0.2359,0.2323,0.2328,0.2373,0.2427,0.2434,0.2441,0.2511,0.2528,0.2542,0,0,0,0,0,0,0.2266,0.2273,0.2265,0.2294,0.23,0.2283,0.2302,0.228,0.2297,0.2304,0.2293,0.23,0.2376,0.2368,0.2327,0.2441,0.2389,0.2398,0.2442,0.2457,0.2469,0.2496,0.2285,0,0,0,0,0,0.228,0.2297,0.2301,0.2322,0.2332,0.2312,0.2317,0.2312,0.2322,0.2325,0.2341,0.2367,0.2407,0.2425,0.2464,0.2515,0.2543,0.2551,0.2564,0.2574,0.2602,0.2704,0.2729,0.2468,0.2468,0.2467,0,0,0.2288,0.23,0.2306,0.2328,0.2327,0.2355,0.2313,0.2335,0.2355,0.2334,0.2387,0.2418,0.2435,0.2509,0.254,0.2505,0.2661,0.2583,0.2591,0.2615,0.2714,0.274,0.2762,0.2472,0.2472,0.2471,0,0,0.2332,0.233,0.2369,0.2377,0.2402,0.2397,0.2406,0.2414,0.2417,0.2471,0.2474,0.2536,0.258,0.2613,0.2627,0.2731,0.2732,0.2743,0.2817,0.2915,0.2938,0.2957,0.3009,0.3032,0.2739,0.2739,0.2739,0,0.2351,0.2363,0.2382,0.2423,0.2425,0.2418,0.2446,0.246,0.2491,0.2528,0.2509,0.2638,0.263,0.2733,0.2764,0.2757,0.281,0.2749,0.2932,0.2952,0.2971,0.3019,0.3044,0.2744,0.2743,0.2743,0.2742,0,0.2406,0.2418,0.2438,0.2476,0.2514,0.2513,0.2552,0.26,0.2606,0.2631,0.2748,0.2773,0.2856,0.2855,0.2831,0.2972,0.2963,0.2941,0.2888,0.3002,0.3045,0.307,0.275,0.2749,0.2747,0.2746,0,0,0.2412,0.2457,0.2456,0.2481,0.2513,0.2556,0.2625,0.2684,0.2767,0.2814,0.2919,0.2974,0.3019,0.3041,0.3044,0.3106,0.3247,0.3086,0.3089,0.3128,0.3463,0.326,0.3266,0.3275,0.328,0.3284,0.3431,0,0.2417,0.2468,0.2498,0.2555,0.258,0.262,0.2713,0.2802,0.2856,0.2978,0.3021,0.3129,0.3078,0.3142,0.3207,0.3253,0.3322,0.3208,0.3356,0.3359,0.3158,0.3292,0.3028,0.3121,0.3455,0.346,0.3463,0,0.2442,0.2465,0.2508,0.2605,0.2631,0.2716,0.2865,0.2945,0.3111,0.3166,0.3286,0.3321,0.3436,0.3368,0.3528,0.3472,0.3487,0.3499,0.3505,0.3309,0.3203,0.3067,0.3154,0.3504,0.3501,0.3498,0.3495,0,0.2431,0.2474,0.2498,0.2511,0.2644,0.2742,0.2851,0.3036,0.3159,0.3314,0.3416,0.3541,0.3628,0.3699,0.3685,0.3648,0.3839,0.3781,0.3617,0.3601,0.3399,0.3355,0.3912,0.3912,0.3912,0.3911,0.3911,0,0.2403,0.2444,0.2515,0.2544,0.2703,0.2801,0.3018,0.3145,0.3352,0.3488,0.3547,0.3646,0.3724,0.3801,0.3787,0.3775,0.3929,0.3667,0.3646,0.3413,0.3371,0.3715,0.3691,0.3917,0.3915,0.3914,0.3913,0,0.2444,0.2434,0.2515,0.2637,0.2721,0.2874,0.3166,0.3311,0.348,0.3656,0.3709,0.3813,0.3849,0.3885,0.3969,0.3884,0.3892,0.3842,0.3527,0.3463,0.3565,0.3543,0.3704,0.3698,0.3694,0.369,0.3687,0,0.2475,0.2506,0.2625,0.2732,0.2821,0.3041,0.3213,0.3401,0.3511,0.3705,0.3761,0.3855,0.3806,0.3858,0.3758,0.3715,0.3803,0.3427,0.3277,0.3591,0.3556,0.3541,0.3526,0.3055,0.3046,0.304,0.3034,0,0.2619,0.2648,0.2751,0.2873,0.3041,0.316,0.337,0.3451,0.3587,0.367,0.3673,0.3649,0.3653,0.3432,0.3387,0.332,0.3405,0.3281,0.3779,0.3105,0.2979,0.2942,0.295,0.2975,0.2981,0.2985,0.2988,0.2991,0.282,0.2897,0.298,0.3072,0.3196,0.3183,0.3204,0.329,0.3338,0.3289,0.3411,0.3247,0.3253,0.2975,0.2871,0.2799,0.3015,0.2876,0.2899,0.2929,0.2784,0.2652,0.2559,0.2563,0.2566,0.2568,0.2571,0,0.305,0.3089,0.3182,0.3224,0.318,0.3216,0.3225,0.3099,0.2952,0.2969,0.288,0.2573,0.2429,0.2455,0.225,0.2212,0.2218,0.2112,0.2125,0.2186,0.224,0.2061,0.1645,0.1642,0.1639,0.1636,0,0,0.3225,0.332,0.3227,0.3129,0.3099,0.2916,0.2797,0.2609,0.2523,0.2281,0.2176,0.2275,0.2374,0.1979,0.1928,0.1757,0.1954,0.1676,0.2428,0.2505,0.2555,0.2694,0.2488,0,0,0,0,0]},{"header":{"parameterUnit":"m.s-1","parameterCategory":2,"la1":30.2991,"la2":30.254,"lo1":-89.0895,"lo2":-89.0444,"dy":0.0017,"dx":0.0017,"nx":28,"ny":28,"refTime":"2025-03-20T09:00:00:Z","depth":"2","parameterNumber":3,"parameterNumberName":"V-component_of_CURRENTS"},"data":[0,0,0,0,0,0,0,0,0,0,0,0,0,0,0,0,0,0,0,0,0,0,0,0,0,0,0,0,0,0,0,0,0,0,0,0,0,0,0,0,0,0,0,0,0,0,0,0,0,0,0,0,0,0,0,0,0,0,0.0008,0.0008,0,0.0016,0.0016,0.0016,0.0017,0.0016,0.0016,0.0016,0.005,0.0051,0.0052,0,0,0,0,0,0,0,0,0,0,0,0,0,-0.0026,-0.0025,0.0008,0.0008,0.0008,0.0016,0.0016,0.0016,0.0017,0.0016,0.0016,0.0016,0.005,0.0051,0.0052,0,0,0,0,0,0,0,0,0,0,0,0,0,-0.0013,-0.0025,0.0008,0.0008,0.0008,0.0016,0.0016,0.0016,0.0017,0.0016,0.0016,0.0016,0.0049,0.0051,0.0052,0.0067,0,0,0.0057,0.0058,0,0,0,0,0,0,0,0,-0.0014,-0.0012,0.0008,0.0008,0.0008,0.0014,0.0016,0.0034,0.0017,0.0015,0.0016,0.0016,0.004,0.0042,0.0045,0.0069,0.007,0.0057,0.0058,0.0059,0.0059,0,0,0,0,0,0,0,-0.0015,-0.0012,0.0012,0.0008,0.0008,0.0002,0.0003,0.002,0.003,0.0015,0.0015,0.0014,0.004,0.0044,0.0046,0.0071,0.0057,0.0059,0.006,0.006,0.0122,0.0123,0,0,0,0,0,0,-0.0016,-0.0013,0.0012,0.0012,-0.0005,0.0002,0.0004,0.0013,0.0029,0.0031,0.0014,0.0014,0.0041,0.0044,0.0047,0.0096,0.0059,0.006,0.0061,0.0122,0.0123,0.0123,0,0,0,0,0,0,-0.0017,-0.0013,0.0011,-0.0002,0.0001,0.0003,0.0013,0.0014,0.0016,0.0028,0.0031,0.0016,0.0041,0.0045,0.0068,0.0096,0.0061,0.0063,0.0121,0.0122,0.0123,0.0173,0,0,0,0,0,0,-0.0017,-0.0013,-0.0009,-0.0001,0.0002,0.0023,0.0013,0.0014,0.0016,0.0016,0.0031,0.0034,0.0041,0.0066,0.007,0.0097,0.0064,0.012,0.0121,0.0123,0.0171,0.0176,0.018,0,0,0,0,0,-0.0018,-0.0002,-0.0008,-0.0005,0.0009,0.0023,0.0025,0.0025,0.0016,0.0025,0.0034,0.0033,0.0076,0.0068,0.0072,0.0101,0.0119,0.0121,0.0122,0.0168,0.0175,0.018,0,0,0,0,0,0,-0.0014,-0.0,-0.0007,0.0012,0.0017,0.0023,0.0031,0.0026,0.0038,0.0038,0.0044,0.0048,0.0078,0.0078,0.0068,0.012,0.0097,0.01,0.0131,0.0137,0.0141,0.0162,0.0065,0,0,0,0,0,-0.0012,0.0004,0.0009,0.0023,0.0027,0.0026,0.003,0.003,0.004,0.0044,0.0054,0.0066,0.0088,0.0102,0.0116,0.0147,0.014,0.0166,0.0171,0.0175,0.0194,0.0208,0.0217,0.0128,0.0128,0.0128,0,0,-0.0008,0.0001,0.0009,0.0024,0.0028,0.0047,0.0029,0.004,0.0059,0.0047,0.0078,0.0082,0.0098,0.0134,0.0147,0.0139,0.0191,0.0177,0.0181,0.0198,0.0211,0.022,0.0227,0.0129,0.0129,0.0129,0,0,0.0019,0.0017,0.0044,0.005,0.0058,0.0061,0.0063,0.0071,0.0079,0.0102,0.0103,0.0123,0.0149,0.0172,0.0186,0.0225,0.0212,0.0226,0.0276,0.0289,0.0297,0.0304,0.0281,0.0286,0.0233,0.0233,0.0233,0,0.0021,0.0052,0.0051,0.0077,0.0082,0.0069,0.0093,0.0105,0.0119,0.0146,0.0118,0.0177,0.0172,0.024,0.0247,0.0239,0.0232,0.0254,0.0297,0.0303,0.031,0.0285,0.029,0.0236,0.0235,0.0235,0.0235,0,0.007,0.0088,0.0104,0.0131,0.0139,0.0154,0.0165,0.0185,0.0183,0.0205,0.0257,0.0252,0.0296,0.0288,0.0278,0.0333,0.0307,0.0297,0.0285,0.0322,0.0293,0.0297,0.0239,0.0238,0.0238,0.0237,0,0,0.009,0.013,0.0134,0.0143,0.0164,0.0171,0.0218,0.0264,0.0331,0.032,0.0393,0.0399,0.0406,0.042,0.0411,0.0411,0.042,0.0375,0.0374,0.0357,0.043,0.0354,0.035,0.0423,0.0425,0.0426,0.0383,0,0.0124,0.0168,0.0188,0.022,0.0233,0.0247,0.0299,0.0341,0.0394,0.0467,0.046,0.0525,0.0456,0.0489,0.0477,0.0453,0.0437,0.0432,0.0394,0.0392,0.0324,0.0355,0.0366,0.0326,0.0387,0.0387,0.0388,0,0.0166,0.0183,0.0218,0.0259,0.0271,0.0295,0.0384,0.0437,0.0548,0.0603,0.0666,0.0678,0.0693,0.0619,0.0582,0.0585,0.0512,0.0465,0.0463,0.0383,0.0325,0.0303,0.033,0.0394,0.0393,0.0393,0.0392,0,0.0155,0.0205,0.0224,0.0232,0.0284,0.0313,0.0352,0.0473,0.059,0.0701,0.0809,0.0814,0.084,0.076,0.0648,0.063,0.0585,0.055,0.0405,0.0397,0.0397,0.0387,0.0513,0.0513,0.0513,0.0514,0.0514,0,0.0173,0.0184,0.0215,0.0218,0.0294,0.0306,0.0446,0.0524,0.0689,0.0867,0.0874,0.0995,0.088,0.0845,0.0707,0.0566,0.0628,0.0423,0.0394,0.0409,0.0401,0.0456,0.045,0.0512,0.0512,0.0513,0.0513,0,0.0154,0.0173,0.0205,0.0252,0.0291,0.0335,0.0527,0.0676,0.0789,0.1023,0.1067,0.1144,0.1079,0.0938,0.0805,0.0657,0.0519,0.0444,0.0444,0.0415,0.0302,0.0299,0.0294,0.0291,0.0289,0.0287,0.0285,0,0.0143,0.0153,0.0239,0.0336,0.0365,0.0465,0.0608,0.073,0.0923,0.1127,0.1258,0.1244,0.1265,0.1012,0.0757,0.05,0.0475,0.0331,0.029,0.0314,0.0286,0.0286,0.0286,0.03,0.0298,0.0297,0.0296,0,0.0148,0.0181,0.0249,0.0448,0.0582,0.0737,0.0918,0.1062,0.1238,0.1386,0.1539,0.1529,0.1297,0.1035,0.0671,0.0495,0.037,0.0296,0.0367,0.034,0.0312,0.0286,0.0288,0.0286,0.0287,0.0288,0.0288,0.0289,0.0202,0.0273,0.0428,0.0614,0.0787,0.0996,0.1121,0.1318,0.1525,0.1705,0.1683,0.1633,0.1358,0.0863,0.0571,0.0264,0.0286,0.0171,0.0178,0.0186,0.0181,0.015,0.009,0.009,0.009,0.009,0.009,0,0.0317,0.044,0.0622,0.0845,0.104,0.1101,0.1357,0.147,0.1651,0.1753,0.179,0.1484,0.119,0.0865,0.041,0.0136,0.0137,0.0034,0.0111,0.0122,0.0132,0.0128,0.0021,0.002,0.0019,0.0018,0,0,0.0417,0.0612,0.0697,0.103,0.1183,0.1395,0.1506,0.1644,0.1739,0.1774,0.1713,0.1624,0.126,0.0909,0.0549,0.029,0.0264,0.0225,0.031,0.0455,0.0468,0.0238,0.0247,0,0,0,0,0]}],[{"header":{"parameterUnit":"m.s-1","parameterCategory":2,"la1":30.2991,"la2":30.254,"lo1":-89.0895,"lo2":-89.0444,"dy":0.0017,"dx":0.0017,"nx":28,"ny":28,"refTime":"2025-03-20T09:00:00:Z","depth":"4","parameterNumber":2,"parameterNumberName":"U-component_of_CURRENTS"},"data":[0,0,0,0,0,0,0,0,0,0,0,0,0,0,0,0,0,0,0,0,0,0,0,0,0,0,0,0,0,0,0,0,0,0,0,0,0,0,0,0,0,0,0,0,0,0,0,0,0,0,0,0,0,0,0,0,0,0,0.1123,0.1124,0,0.1152,0.1153,0.1153,0.1186,0.1187,0.1188,0.1189,0.1263,0.1264,0.1266,0,0,0,0,0,0,0,0,0,0,0,0,0,0.1121,0.1121,0.1123,0.1124,0.1124,0.1152,0.1153,0.1153,0.1186,0.1187,0.1188,0.1189,0.1263,0.1264,0.1266,0,0,0,0,0,0,0,0,0,0,0,0,0,0.113,0.1121,0.1123,0.1147,0.1149,0.1152,0.1153,0.1153,0.1186,0.1187,0.1188,0.119,0.1262,0.1264,0.1266,0.1253,0,0,0.1272,0.1272,0,0,0,0,0,0,0,0,0.113,0.113,0.1143,0.1145,0.1148,0.117,0.118,0.119,0.1186,0.1169,0.1189,0.119,0.1237,0.1241,0.1239,0.1257,0.126,0.1272,0.1273,0.1274,0.1274,0,0,0,0,0,0,0,0.1129,0.1129,0.1131,0.1143,0.1147,0.1165,0.1167,0.1181,0.1194,0.117,0.1174,0.1182,0.1239,0.1237,0.1241,0.1261,0.1272,0.1273,0.1274,0.1275,0.1397,0.1399,0,0,0,0,0,0,0.1129,0.1128,0.113,0.1133,0.1145,0.1164,0.1166,0.1159,0.1193,0.12,0.1181,0.1183,0.1233,0.1239,0.1244,0.1333,0.1274,0.1275,0.1276,0.1395,0.1397,0.1399,0,0,0,0,0,0,0.1128,0.1128,0.1129,0.1135,0.1137,0.1163,0.1155,0.1159,0.1182,0.1201,0.1209,0.1202,0.1234,0.1241,0.1281,0.1332,0.1276,0.1278,0.1392,0.1395,0.1398,0.1445,0,0,0,0,0,0,0.1128,0.1127,0.1128,0.1134,0.1136,0.1142,0.1154,0.1159,0.1185,0.1189,0.1222,0.1228,0.1236,0.1278,0.1283,0.1334,0.1279,0.1389,0.1394,0.1397,0.1441,0.145,0.1457,0,0,0,0,0,0.1127,0.1124,0.1127,0.1128,0.1134,0.1143,0.1145,0.1167,0.1185,0.1192,0.1223,0.1229,0.1308,0.128,0.1286,0.1338,0.1387,0.1392,0.1397,0.1437,0.1448,0.1457,0,0,0,0,0,0,0.1133,0.1127,0.1131,0.1129,0.1141,0.115,0.1171,0.1178,0.1205,0.1222,0.1239,0.1247,0.1302,0.1312,0.1282,0.1388,0.1356,0.1362,0.1385,0.1395,0.1403,0.1402,0.1281,0,0,0,0,0,0.113,0.1126,0.1128,0.1133,0.1144,0.116,0.1171,0.1181,0.1203,0.1217,0.1252,0.1291,0.132,0.135,0.1372,0.1422,0.1438,0.1467,0.1475,0.1481,0.1487,0.1553,0.1567,0.1415,0.1415,0.1415,0,0,0.1132,0.1135,0.1131,0.1134,0.1154,0.1163,0.117,0.1194,0.1217,0.1221,0.1287,0.1311,0.1336,0.1393,0.1422,0.1414,0.1533,0.1487,0.1493,0.1495,0.1559,0.1574,0.1587,0.1418,0.1418,0.1417,0,0,0.1131,0.1144,0.1134,0.1148,0.1172,0.1184,0.1195,0.1223,0.1256,0.1301,0.132,0.1375,0.1429,0.1461,0.148,0.1546,0.1562,0.157,0.1623,0.1687,0.17,0.1711,0.1747,0.1761,0.1587,0.1587,0.1587,0,0.1138,0.1114,0.1137,0.1143,0.1152,0.1197,0.1191,0.1237,0.128,0.1325,0.1335,0.1444,0.1461,0.1533,0.1561,0.1565,0.1596,0.158,0.1697,0.1709,0.1719,0.1753,0.1768,0.159,0.159,0.1589,0.1589,0,0.1115,0.1112,0.1122,0.1135,0.1155,0.1164,0.1218,0.1279,0.1334,0.1383,0.1481,0.1515,0.159,0.1608,0.1602,0.17,0.1694,0.1686,0.1668,0.1737,0.1768,0.1783,0.1594,0.1593,0.1592,0.1592,0,0,0.1085,0.1092,0.11,0.1084,0.1143,0.1143,0.1235,0.1302,0.1387,0.1463,0.1563,0.1622,0.1679,0.1703,0.1723,0.1777,0.1872,0.1774,0.1776,0.18,0.2009,0.1849,0.185,0.1894,0.1897,0.1899,0.1998,0,0.1054,0.1007,0.1053,0.1047,0.1015,0.1119,0.1193,0.1284,0.1406,0.1537,0.1619,0.1728,0.1708,0.1771,0.1819,0.1857,0.1915,0.1845,0.1945,0.1948,0.1791,0.1863,0.1909,0.2008,0.2012,0.2014,0.2016,0,0.0997,0.0968,0.0914,0.0951,0.0963,0.1009,0.1147,0.1234,0.1455,0.1561,0.1713,0.1808,0.1918,0.1896,0.2003,0.1966,0.1998,0.2017,0.2021,0.1865,0.1816,0.1927,0.2043,0.2041,0.2039,0.2037,0.2035,0,0.086,0.0878,0.0812,0.082,0.0883,0.0943,0.104,0.1246,0.1359,0.1628,0.1757,0.1895,0.1997,0.2055,0.2096,0.2084,0.2191,0.2181,0.2066,0.2055,0.2146,0.2133,0.2271,0.227,0.227,0.227,0.227,0,0.0748,0.0716,0.0755,0.0715,0.0754,0.0849,0.0989,0.1144,0.1376,0.1548,0.1774,0.1914,0.205,0.2136,0.2144,0.2129,0.2237,0.2083,0.2076,0.2163,0.2151,0.2156,0.2142,0.2274,0.2273,0.2272,0.2271,0,0.0584,0.0595,0.0549,0.0616,0.0672,0.0715,0.0966,0.1092,0.1328,0.1571,0.167,0.1945,0.2086,0.2162,0.2262,0.2183,0.219,0.216,0.2237,0.2231,0.2006,0.1993,0.2069,0.2065,0.2061,0.2057,0.2055,0,0.0455,0.0406,0.0472,0.0516,0.0568,0.0689,0.0816,0.1056,0.122,0.1578,0.1681,0.1917,0.2084,0.209,0.2161,0.2168,0.2138,0.2119,0.2071,0.2003,0.199,0.1983,0.1976,0.2048,0.2047,0.2046,0.2045,0,0.028,0.0336,0.0358,0.0438,0.0554,0.066,0.0865,0.0946,0.126,0.1449,0.169,0.1815,0.1965,0.2032,0.204,0.2037,0.2115,0.2078,0.2086,0.2041,0.1979,0.1968,0.1966,0.2032,0.2034,0.2035,0.2036,0,0.0225,0.0249,0.0341,0.0438,0.0574,0.0677,0.0742,0.0954,0.1118,0.1485,0.1539,0.1794,0.1962,0.1966,0.1967,0.195,0.1938,0.1861,0.1881,0.1897,0.1787,0.168,0.1646,0,0,0,0,0,0.0168,0.0272,0.0348,0.0478,0.0599,0.0673,0.0841,0.0911,0.1166,0.1294,0.1419,0.157,0.1681,0.1779,0.1729,0.1867,0.1911,0.1796,0.1824,0.1956,0.1972,0.1854,0,0,0,0,0,0,0.0178,0.0269,0.0362,0.054,0.0609,0.0743,0.0832,0.0937,0.1018,0.1245,0.1305,0.1464,0.157,0.1704,0.1706,0.1724,0.1702,0.1906,0.1901,0.1947,0.1961,0.1974,0.1858,0,0,0,0,0]},{"header":{"parameterUnit":"m.s-1","parameterCategory":2,"la1":30.2991,"la2":30.254,"lo1":-89.0895,"lo2":-89.0444,"dy":0.0017,"dx":0.0017,"nx":28,"ny":28,"refTime":"2025-03-20T09:00:00:Z","depth":"4","parameterNumber":3,"parameterNumberName":"V-component_of_CURRENTS"},"data":[0,0,0,0,0,0,0,0,0,0,0,0,0,0,0,0,0,0,0,0,0,0,0,0,0,0,0,0,0,0,0,0,0,0,0,0,0,0,0,0,0,0,0,0,0,0,0,0,0,0,0,0,0,0,0,0,0,0,0.0043,0.0043,0,0.0062,0.0062,0.0062,0.0063,0.0063,0.0062,0.0062,0.0108,0.011,0.0112,0,0,0,0,0,0,0,0,0,0,0,0,0,0.0004,0.0005,0.0043,0.0043,0.0043,0.0062,0.0062,0.0062,0.0063,0.0063,0.0062,0.0062,0.0108,0.011,0.0112,0,0,0,0,0,0,0,0,0,0,0,0,0,0.0023,0.0005,0.0043,0.0044,0.0044,0.0061,0.0062,0.0063,0.0063,0.0063,0.0062,0.0061,0.0107,0.011,0.0112,0.0139,0,0,0.0119,0.012,0,0,0,0,0,0,0,0,0.0022,0.0025,0.0044,0.0044,0.0044,0.0058,0.0065,0.0089,0.0063,0.0058,0.0062,0.0061,0.0093,0.0097,0.0104,0.0141,0.0143,0.012,0.0121,0.0122,0.0123,0,0,0,0,0,0,0,0.0021,0.0024,0.0052,0.0044,0.0044,0.0042,0.0045,0.007,0.0081,0.0058,0.0058,0.0057,0.0094,0.0102,0.0105,0.0144,0.012,0.0122,0.0123,0.0124,0.0182,0.0182,0,0,0,0,0,0,0.0016,0.0023,0.0051,0.0052,0.0029,0.0044,0.0046,0.0055,0.008,0.0082,0.0058,0.0057,0.0098,0.0102,0.0107,0.0135,0.0122,0.0124,0.0126,0.0182,0.0182,0.0182,0,0,0,0,0,0,0.0015,0.0019,0.0051,0.0036,0.004,0.0045,0.0055,0.0056,0.0062,0.0079,0.0082,0.0062,0.0097,0.0103,0.0133,0.0136,0.0125,0.0128,0.0182,0.0182,0.0182,0.0194,0,0,0,0,0,0,0.0014,0.0019,0.0025,0.0036,0.004,0.0062,0.0055,0.0057,0.0061,0.0061,0.0083,0.0087,0.0097,0.0129,0.0135,0.014,0.013,0.0182,0.0182,0.0182,0.0193,0.0194,0.0195,0,0,0,0,0,0.0013,0.0028,0.0025,0.0028,0.0048,0.0063,0.0065,0.0067,0.0062,0.0069,0.0085,0.0086,0.0134,0.0132,0.0139,0.0144,0.0182,0.0182,0.0182,0.0193,0.0194,0.0195,0,0,0,0,0,0,0.0014,0.0029,0.0027,0.0045,0.0051,0.0062,0.0069,0.0068,0.0087,0.0087,0.01,0.0106,0.0127,0.0136,0.0134,0.0158,0.0153,0.0155,0.0159,0.016,0.0161,0.0155,0.0132,0,0,0,0,0,0.0017,0.0033,0.004,0.0054,0.0057,0.0062,0.0067,0.0069,0.0084,0.009,0.0105,0.0119,0.0134,0.0148,0.0162,0.0189,0.017,0.0191,0.0192,0.0193,0.0192,0.0165,0.0163,0.0183,0.0183,0.0183,0,0,0.002,0.003,0.0039,0.0055,0.006,0.008,0.0065,0.0076,0.0094,0.0095,0.0125,0.0126,0.0141,0.0164,0.0173,0.0173,0.0177,0.0193,0.0194,0.0192,0.0165,0.0163,0.0161,0.0183,0.0183,0.0183,0,0,0.0047,0.0044,0.0071,0.0079,0.0088,0.009,0.0092,0.0103,0.0108,0.0134,0.0133,0.0132,0.0169,0.017,0.0178,0.0194,0.018,0.02,0.0207,0.0182,0.0179,0.0177,0.0147,0.0142,0.0204,0.0204,0.0204,0,0.0049,0.0095,0.0079,0.0107,0.0126,0.0096,0.0135,0.0129,0.0148,0.016,0.0144,0.0165,0.0168,0.0188,0.0187,0.0195,0.018,0.0204,0.0182,0.018,0.0177,0.0147,0.0142,0.0204,0.0204,0.0204,0.0204,0,0.01,0.0137,0.0151,0.018,0.0187,0.0216,0.0205,0.0204,0.0197,0.0199,0.0206,0.0192,0.0205,0.0196,0.02,0.0191,0.0184,0.0183,0.0178,0.0176,0.0144,0.0138,0.0205,0.0205,0.0205,0.0204,0,0,0.0118,0.0182,0.0189,0.0234,0.0239,0.0259,0.0262,0.028,0.029,0.0266,0.0281,0.0267,0.0242,0.0246,0.0231,0.0197,0.0159,0.0187,0.0185,0.0155,0.01,0.0104,0.0097,0.0158,0.0157,0.0156,0.0083,0,0.0175,0.027,0.0271,0.0349,0.0403,0.0372,0.0386,0.038,0.036,0.0354,0.0303,0.0314,0.0268,0.0272,0.0225,0.0183,0.0145,0.0178,0.0108,0.0106,0.0108,0.0091,0.0154,0.0078,0.0077,0.0076,0.0075,0,0.0235,0.0299,0.0408,0.0475,0.049,0.0522,0.0537,0.0547,0.0504,0.0475,0.0433,0.0395,0.0342,0.0299,0.0195,0.0223,0.0163,0.0111,0.0108,0.0103,0.0099,0.0082,0.0064,0.0065,0.0066,0.0066,0.0067,0,0.0302,0.0392,0.0498,0.0523,0.058,0.0615,0.0633,0.0607,0.061,0.0562,0.0542,0.0463,0.0431,0.0332,0.021,0.0213,0.0082,0.0079,0.002,0.0019,0.0033,0.0036,0.0003,0.0003,0.0003,0.0003,0.0003,0,0.0385,0.0465,0.055,0.0614,0.0703,0.0716,0.0781,0.075,0.0723,0.0727,0.063,0.0592,0.0438,0.034,0.0226,0.0098,0.0096,0.0013,-0.0001,0.0039,0.0044,0.0028,0.0032,0.0,0.0001,0.0001,0.0002,0,0.0444,0.0518,0.0624,0.0714,0.0751,0.0812,0.0866,0.0889,0.0857,0.0846,0.0835,0.0696,0.0569,0.0403,0.0235,0.0137,0.0008,-0.0034,0.0012,0.0003,-0.0042,-0.0037,-0.0101,-0.0102,-0.0102,-0.0103,-0.0103,0,0.0493,0.0566,0.0678,0.0733,0.0787,0.0883,0.0936,0.0948,0.0955,0.0907,0.0892,0.0779,0.0673,0.0424,0.0251,0.0028,-0.0001,-0.007,-0.0059,-0.0047,-0.0054,-0.0048,-0.0042,-0.0104,-0.0104,-0.0104,-0.0104,0,0.0554,0.0587,0.0663,0.077,0.0863,0.0947,0.1026,0.1037,0.1043,0.1021,0.0934,0.0801,0.0649,0.0436,0.0258,0.0099,-0.0029,-0.0075,-0.0075,-0.0065,-0.005,-0.0055,-0.0049,-0.0105,-0.0105,-0.0105,-0.0105,0,0.0567,0.0611,0.0702,0.0791,0.0907,0.0992,0.1026,0.1053,0.1075,0.1016,0.0993,0.0824,0.0722,0.0474,0.031,0.0149,0.0116,0.0066,0.0058,0.0058,0.0121,0.0165,0.0159,0,0,0,0,0,0.057,0.0628,0.0709,0.0819,0.0921,0.0985,0.1075,0.1092,0.1116,0.1063,0.1026,0.0884,0.0637,0.0518,0.0361,0.0302,0.0086,0.0112,0.0025,-0.0114,-0.0112,-0.0065,0,0,0,0,0,0,0.0578,0.066,0.0711,0.084,0.0895,0.1016,0.1078,0.1076,0.1042,0.1025,0.089,0.0837,0.0589,0.0717,0.0349,0.0302,0.0225,-0.0003,-0.0006,-0.0115,-0.0113,-0.0112,-0.0062,0,0,0,0,0]}]]